Left ArrowRight Arrow

32.19382, -80.73816

Hourly Observations for January 15, 2020

Temp ( °F °C ) Dew Point ( °F °C ) Humidity (%) Winds ( mph kmh ) Pressure ( in mb ) Visibility ( mi km ) Precip ( " mm )
12:15 am 00:15 Clear 68 20 64 18 88 88 SSW 6 9 30.20 1023 10 16 N/A
12:35 am 00:35 Clear 66 19 64 18 94 94 SSW 8 13 30.19 1022 10 16 N/A
12:55 am 00:55 Clear 68 20 64 18 88 88 SSW 7 11 30.19 1022 10 16 N/A
1:15 am 01:15 Clear 68 20 64 18 88 88 SSW 9 15 30.19 1022 10 16 N/A
1:35 am 01:35 Clear 68 20 64 18 88 88 SSW 9 15 30.19 1022 10 16 N/A
1:55 am 01:55 Clear 68 20 64 18 88 88 SSW 9 15 30.18 1022 10 16 N/A
2:15 am 02:15 Clear 68 20 64 18 88 88 SSW 7 11 30.18 1022 10 16 N/A
2:35 am 02:35 Mostly Cloudy 68 20 64 18 88 88 SSW 7 11 30.18 1022 10 16 N/A
2:55 am 02:55 Cloudy 68 20 64 18 88 88 VRB 5 7 30.19 1022 10 16 N/A
3:15 am 03:15 Cloudy 68 20 64 18 88 88 VRB 3 6 30.21 1023 10 16 N/A
3:35 am 03:35 Cloudy 66 19 64 18 94 94 N 6 9 30.21 1023 10 16 N/A
3:55 am 03:55 Partly Cloudy 66 19 64 18 94 94 N 7 11 30.21 1023 10 16 N/A
4:15 am 04:15 Mostly Cloudy 66 19 63 17 88 88 N 3 6 30.21 1023 10 16 N/A
4:35 am 04:35 Cloudy 66 19 63 17 88 88 Calm 30.19 1022 10 16 N/A
4:55 am 04:55 Cloudy 64 18 63 17 94 94 Calm 30.19 1022 10 16 N/A
5:15 am 05:15 Mostly Cloudy 64 18 63 17 94 94 Calm 30.19 1022 10 16 N/A
5:35 am 05:35 Partly Cloudy 64 18 63 17 94 94 Calm 30.18 1022 10 16 N/A
6:50 am 06:50 Mostly Cloudy 64 18 63 17 94 94 Calm 30.20 1023 10 16 N/A
7:50 am 07:50 Mostly Cloudy 64 18 63 17 94 94 Calm 30.22 1023 10 16 N/A
8:50 am 08:50 Mostly Cloudy 64 18 63 17 94 94 Calm 30.23 1024 10 16 N/A
9:50 am 09:50 Mostly Cloudy 68 20 64 18 88 88 Calm 30.24 1024 10 16 N/A
10:50 am 10:50 Sunny 70 21 64 18 83 83 SSW 3 6 30.24 1024 10 16 N/A
11:50 am 11:50 Sunny 75 24 66 19 74 74 SSW 6 9 30.23 1024 10 16 N/A
12:50 pm 12:50 Partly Cloudy 77 25 66 19 69 69 WSW 5 7 30.20 1023 10 16 N/A
1:50 pm 13:50 Mostly Cloudy 77 25 66 19 69 69 WSW 5 7 30.17 1022 10 16 N/A
2:50 pm 14:50 Mostly Cloudy 79 26 66 19 65 65 WSW 5 7 30.17 1022 10 16 N/A
3:50 pm 15:50 Partly Cloudy 73 23 66 19 78 78 Calm 30.17 1022 10 16 N/A
4:50 pm 16:50 Sunny 72 22 66 19 83 83 Calm 30.18 1022 10 16 N/A
5:50 pm 17:50 Clear 66 19 64 18 94 94 Calm 30.19 1022 10 16 N/A
6:50 pm 18:50 Clear 64 18 64 18 100 100 Calm 30.21 1023 10 16 N/A
7:50 pm 19:50 Clear 64 18 63 17 94 94 Calm 30.22 1023 10 16 N/A
8:50 pm 20:50 Mostly Clear with Mist and Fog 63 17 63 17 100 100 Calm 30.23 1024 6 10 N/A
8:55 pm 20:55 Partly Cloudy 63 17 63 17 100 100 Calm 30.23 1024 7 11 N/A
9:15 pm 21:15 Partly Cloudy with Mist and Fog 63 17 63 17 100 100 Calm 30.23 1024 6 10 N/A
9:35 pm 21:35 Mostly Cloudy 64 18 63 17 94 94 Calm 30.23 1024 9 14 N/A
9:55 pm 21:55 Mostly Cloudy 64 18 63 17 94 94 Calm 30.23 1024 9 14 N/A
10:15 pm 22:15 Mostly Cloudy 64 18 63 17 94 94 Calm 30.23 1024 10 16 N/A
10:35 pm 22:35 Partly Cloudy 63 17 63 17 100 100 SSW 3 6 30.22 1023 7 11 N/A
10:55 pm 22:55 Clear 63 17 63 17 100 100 Calm 30.22 1023 10 16 N/A
11:15 pm 23:15 Clear 64 18 63 17 94 94 Calm 30.22 1023 10 16 N/A
11:35 pm 23:35 Clear 63 17 63 17 100 100 SSW 3 6 30.21 1023 10 16 N/A
11:55 pm 23:55 Clear 63 17 63 17 100 100 SSW 3 6 30.20 1023 8 13 N/A

Powered by Vaisala Xweather